CAPE
355 338 188 196 196 316 399 587 351 330 146 111 50 16 111 90 56 20 40 412 615 1046 1112 1238 1563 1883 1533 1942 1791 1752 1744 1699 1765 1857 1831 1857 1537 1405 1366 1115 1030 772 694
181 111 189 77 298 340 154 412 281 235 139 99 52 57 105 122 104 46 80 263 279 669 810 1046 1325 1419 1628 1677 1935 1798 1821 1761 1740 1623 1766 1716 1395 1384 1535 1034 1014 766 474
181 174 273 175 607 530 540 367 252 175 122 187 80 70 1 79 108 40 35 19 167 298 462 648 944 1286 1496 1508 1544 1832 1714 1630 1609 1548 1550 1288 1555 1593 1344 1074 907 558 312
439 340 388 380 470 515 288 329 409 315 145 162 78 48 50 47 100 57 55 49 46 222 384 331 730 1074 1146 1457 1648 1622 1629 1497 1417 1587 1329 1361 1440 1525 862 485 810 773 354
380 381 362 321 349 321 352 270 245 169 154 127 164 159 88 56 43 129 84 45 42 71 135 278 142 721 1009 1202 1390 1584 1609 1386 1552 1456 1306 1339 1405 1383 1059 740 1400 1065 768
562 432 298 280 310 115 190 337 281 195 32 201 105 116 109 104 67 103 103 101 3 33 43 67 67 213 762 912 1328 1277 1661 1538 1555 1442 1228 811 1355 1079 873 869 690 773 488
857 567 374 299 402 52 175 366 320 158 74 183 124 117 123 127 92 98 118 51 43 17 18 20 6 15 3 704 1158 1184 1554 1550 1306 1513 1346 1247 679 1463 911 1314 1029 731 605
556 535 495 558 645 431 230 216 121 146 47 121 54 57 19 40 61 109 103 23 17 28 14 3 0 0 0 121 836 1071 1220 1349 1037 1100 1589 1374 1206 940 778 596 497 486 373
872 644 623 744 786 215 238 664 169 45 38 112 37 40 24 12 73 97 59 16 0 11 14 0 1 0 0 0 308 1181 1275 1331 1483 1059 1152 1407 1352 1243 1198 823 540 284 312
888 861 720 874 838 127 98 166 236 103 87 80 74 52 59 11 6 13 57 2 32 24 26 38 6 0 0 0 0 378 977 904 1227 1622 1533 1461 1250 1131 1078 945 863 564 191
746 850 697 513 516 219 101 35 93 105 236 60 37 33 68 108 72 86 39 115 109 124 79 38 27 37 18 2 3 31 237 645 764 1250 1426 1391 1250 979 1115 1118 1060 784 566
802 787 766 572 161 133 124 109 71 53 144 385 168 40 23 61 84 55 85 89 96 163 229 122 69 99 144 205 59 24 244 399 504 842 976 1096 1283 1093 903 754 938 899 811
806 685 464 563 452 319 15 2 0 1 4 99 111 122 145 109 20 111 94 55 30 154 215 225 160 138 168 198 235 191 233 376 365 425 653 927 1105 1036 821 622 624 593 394
735 612 466 266 217 76 4 0 0 22 195 147 88 118 208 105 58 102 127 75 102 169 205 187 243 274 220 174 186 274 188 259 313 316 248 360 555 809 841 576 799 810 993
751 471 376 242 121 55 1 0 1 3 46 101 481 267 284 175 159 280 255 100 74 116 245 256 143 302 362 303 245 218 255 306 264 233 151 162 92 224 427 327 542 690 658
1090 707 617 410 294 211 133 17 9 42 94 241 465 508 426 196 297 183 238 208 116 111 95 251 271 227 205 488 509 318 243 302 236 166 84 57 8 0 108 128 118 266 441
1311 1146 1009 815 658 443 233 226 161 200 263 558 661 340 290 225 244 189 203 191 139 44 73 159 347 327 269 246 507 289 250 153 95 68 28 0 0 0 0 0 0 11 0
1496 1342 1072 905 657 412 713 583 453 397 549 555 96 165 239 409 157 256 184 72 149 143 58 23 56 262 251 282 263 287 206 235 46 32 0 0 0 0 0 0 0 0 0
1576 1295 1110 804 809 843 800 928 736 810 937 640 484 317 268 246 234 188 193 143 173 124 135 49 52 88 134 240 369 438 164 148 48 0 0 0 0 0 0 0 0 0 0
1391 1363 1141 1128 1065 1060 1016 876 996 832 577 464 297 97 136 188 140 186 114 27 27 32 73 0 0 60 89 65 63 290 341 356 266 239 124 18 2 0 0 0 0 0 0
1310 1172 1306 1454 1358 1291 1132 1336 1078 769 602 325 1 98 160 107 190 129 73 3 0 0 0 7 89 92 12 18 55 370 263 308 347 429 483 203 72 12 0 0 0 0 0
1477 1476 1653 1460 1344 1402 1496 1308 984 718 530 138 0 0 0 0 0 3 17 0 0 0 0 0 16 65 168 237 238 280 296 197 182 406 378 311 120 106 62 25 21 18 0
1655 1645 1522 1658 1677 1623 1317 878 1182 826 437 157 1 0 0 0 0 1 1 0 0 2 12 0 1 40 89 138 234 199 174 187 201 369 361 294 567 320 216 263 203 133 89
1574 1827 1623 1559 1541 1416 1197 963 1126 792 475 274 169 22 0 0 0 0 0 0 0 0 0 0 2 91 139 152 251 277 261 275 189 370 485 235 330 259 54 55 93 48 3
2078 1710 1615 1785 1818 1578 1017 798 849 820 825 553 336 269 110 0 0 0 0 0 0 2 3 0 34 30 33 32 102 318 335 282 244 271 612 277 349 222 20 6 0 0 0
1787 1530 1496 1369 1342 1357 800 629 609 628 522 888 804 696 387 210 25 0 0 0 0 0 31 1 0 0 0 7 30 261 451 279 293 180 197 123 83 195 122 0 0 0 0
CIN
-45 -38 -46 -47 -40 -25 -24 -30 -29 -34 -47 -30 -42 -60 -40 -59 -118 -155 -156 -37 -13 -7 0 0 0 -1 -32 0 0 -3 0 0 0 0 0 0 -1 -1 -1 -1 -4 -21 -33
-52 -46 -32 -42 -24 -22 -26 -20 -29 -35 -80 -48 -60 -48 -30 -35 -57 -111 -112 -41 -16 -13 -10 0 -1 -10 -5 -9 0 0 0 0 0 -1 0 -1 -2 -2 0 -6 -3 -23 -49
-54 -40 -35 -37 -25 -16 -25 -14 -19 -26 -47 -40 -32 -39 -15 -24 -38 -79 -91 -90 -35 -22 -17 -10 -5 -15 -9 -1 -1 -1 -1 -1 -1 -2 -2 -5 -1 0 -2 -7 -11 -40 -68
-37 -47 -45 -41 -46 -33 -26 -22 -29 -26 -35 -34 -33 -40 -27 -34 -21 -48 -61 -63 -74 -27 -12 -18 -6 -2 -15 -15 0 -9 -2 -3 -3 -1 -8 -3 -1 0 -18 -42 -18 -19 -62
-47 -54 -47 -54 -46 -46 -39 -38 -37 -37 -80 -20 -9 -12 -30 -34 -21 -8 -21 -48 -75 -59 -43 -24 -28 -8 -1 -3 -5 -14 -3 -8 -3 -2 -4 -5 -3 -2 -6 -20 0 -3 -25
-51 -58 -61 -70 -66 -76 -103 -66 -58 -36 -91 -57 -37 -36 -41 -44 -41 -22 -15 -25 -63 -76 -62 -49 -33 -30 -3 -2 -5 -20 -4 -1 -2 -4 -8 -28 -3 -6 -10 -14 -29 -22 -55
-49 -54 -66 -83 -73 -94 -60 -49 -55 -41 -59 -86 -29 -4 -19 -31 -18 -29 -30 -45 -49 -71 -72 -67 -62 -67 -86 -4 -5 -22 -3 0 -7 -2 -5 -7 -46 -1 -10 -1 -6 -24 -40
-60 -63 -56 -51 -62 -54 -62 -47 -60 -51 -77 -33 -37 -21 -26 -26 -30 -29 -27 -56 -51 -52 -72 -47 0 0 0 -68 -18 -23 -10 -5 -28 -19 0 -2 -5 -19 -26 -40 -51 -49 -64
-55 -62 -71 -57 -50 -84 -61 -23 -45 -67 -62 -42 -61 -61 -60 -51 -26 -42 -50 -55 0 -32 -56 0 -26 0 0 0 -71 -2 -2 -3 -1 -23 -13 -1 -2 -3 -2 -17 -40 -76 -71
-64 -65 -70 -57 -57 -99 -97 -57 -47 -51 -57 -49 -47 -72 -60 -82 -59 -38 -46 -10 -34 -25 -36 -34 -41 0 0 0 0 -73 -18 -27 -13 0 0 0 -5 -8 -8 -15 -16 -42 -93
-81 -70 -76 -71 -63 -79 -87 -94 -50 -29 -37 -50 -67 -60 -45 -19 -23 0 -24 -34 -9 -11 -31 -56 -69 -67 -121 -10 -37 -190 -110 -52 -48 -15 0 0 -4 -21 -5 -4 -12 -33 -50
-84 -88 -83 -79 -106 -78 -68 -54 -41 -24 -17 -26 -30 -47 -65 -44 -26 -19 -11 -22 -36 -35 -21 -44 -70 -61 -62 -64 -153 -175 -95 -83 -80 -42 -26 -19 -3 -7 -23 -40 -25 -30 -38
-94 -106 -115 -93 -78 -57 -84 -110 -40 -32 -62 -29 -43 -32 -31 -43 -77 -39 -12 -15 -28 -32 -16 -25 -38 -67 -67 -63 -75 -107 -91 -75 -96 -92 -61 -28 -9 -12 -30 -57 -60 -65 -87
-91 -99 -98 -104 -98 -93 -73 0 0 -45 -26 -40 -37 -52 -37 -52 -65 -44 -32 -19 -10 -8 -16 -54 -44 -33 -67 -76 -95 -63 -75 -74 -87 -105 -129 -94 -57 -21 -14 -43 -29 -39 -27
-71 -127 -125 -105 -102 -110 -16 0 -38 -60 -38 -42 -7 -36 -27 -31 -127 -34 -28 -37 -23 -17 -31 -48 -79 -51 -38 -46 -89 -85 -73 -90 -76 -102 -170 -161 -182 -114 -55 -73 -45 -33 -40
-16 -72 -55 -88 -77 -69 -76 -75 -61 -41 -19 -19 -13 -17 -23 -57 -30 -45 -43 -38 -45 -39 -43 -57 -60 -53 -58 -26 -24 -63 -85 -50 -83 -99 -161 -200 -97 0 -163 -144 -144 -94 -65
-20 -23 -39 -45 -36 -37 -58 -45 -57 -29 -15 -12 -8 -18 -33 -34 -24 -33 -36 -32 -32 -71 -45 -51 -25 -36 -38 -47 -16 -46 -59 -74 -107 -145 -169 0 0 0 0 0 0 -57 0
-16 -28 -35 -36 -49 -70 -19 -19 -25 -30 -20 -12 -42 -29 -34 -23 -26 -26 -29 -32 -26 -32 -49 -61 -85 -44 -35 -43 -28 -50 -58 -66 -110 -159 0 0 0 0 0 0 0 0 0
-31 -54 -49 -70 -49 -37 -21 -5 -14 -6 -3 -10 -15 -25 -31 -22 -30 -21 -17 -19 -31 -44 -58 -100 -53 -74 -78 -46 -45 -41 -65 -66 -116 -16 -4 0 0 0 0 0 0 0 0
-65 -44 -50 -36 -30 -25 -18 -22 -5 -6 -25 -42 -46 -64 -43 -16 -29 -23 -26 -45 -72 -71 -89 -9 0 -79 -106 -77 -84 -30 -19 -32 -44 -47 -89 -73 -62 0 0 0 0 0 0
-110 -112 -64 -23 -20 -34 -52 -17 -14 -21 -51 -98 -3 -107 -35 -18 -20 -36 -52 -89 -47 -30 -31 -27 -53 -61 -33 -68 -72 -39 -45 -16 -26 -33 -26 -83 -150 -165 0 0 0 0 0
-97 -85 -38 -37 -48 -42 -29 -39 -69 -84 -105 -177 0 0 0 -1 0 -79 -76 -22 0 0 0 0 -108 -59 -13 -41 -35 -27 -21 -25 -17 -34 -28 -43 -150 -158 -180 -236 -242 -236 -4
-102 -73 -77 -54 -44 -25 -24 -57 -23 -59 -108 -163 -4 0 0 0 0 -127 -136 0 0 -96 -60 0 -29 -71 -38 -18 -29 -52 -32 -21 -29 -40 -37 -43 -67 -79 -121 -116 -135 -164 -176
-69 -38 -45 -39 -33 -56 -69 -54 -34 -43 -78 -113 -131 -70 0 0 0 0 0 0 0 0 0 0 -7 -45 -33 -29 -24 -35 -40 -29 -59 -24 -33 -43 -50 -48 -196 -239 -193 -196 -113
-6 -12 -25 -10 -6 -13 -76 -110 -97 -85 -72 -99 -129 -122 -130 0 0 0 0 0 -47 -129 -99 0 -72 -89 -111 -116 -95 -43 -28 -37 -27 -26 -35 -40 -53 -65 -163 -253 0 0 0
-11 -12 -11 -16 -22 -26 -80 -82 -86 -114 -119 -57 -48 -57 -92 -113 -181 0 0 0 0 0 -79 -150 0 0 0 -160 -144 -85 -35 -30 -27 -38 -82 -59 -70 -65 -75 0 0 0 0
Wind_Speed
15 15 14 14 16 14 13 12 13 13 12 11 9 10 14 18 16 18 14 18 19 18 17 16 12 8 10 3 1 2 1 3 7 10 15 16 17 15 10 10 9 8 10
14 14 13 15 14 12 12 13 13 12 12 10 12 10 8 15 16 18 17 17 18 17 17 18 17 10 5 6 3 2 10 1 2 18 14 9 15 11 9 10 9 9 5
10 9 10 9 11 13 12 12 10 10 9 10 9 10 8 13 15 16 17 19 17 18 17 19 19 15 9 5 3 1 19 15 11 15 6 14 21 16 15 16 5 12 11
6 7 8 10 12 12 11 9 12 12 9 9 12 16 18 16 18 19 12 15 17 16 18 19 16 13 12 10 8 6 19 27 28 26 27 22 26 25 21 25 11 17 21
4 5 7 9 12 14 15 13 16 16 13 14 10 19 16 16 16 14 16 19 17 17 16 20 17 16 17 21 34 20 30 30 30 29 28 24 25 26 26 26 23 13 14
3 5 7 7 9 11 12 12 12 17 16 10 8 13 19 20 20 16 16 18 15 17 20 19 22 22 29 35 36 34 33 32 31 30 28 27 27 26 26 26 26 25 23
3 4 6 7 7 8 13 8 9 9 11 10 11 14 21 22 15 20 14 16 19 25 24 21 24 27 33 37 37 36 35 32 31 31 29 27 28 27 27 27 27 26 26
3 2 4 6 4 5 7 6 7 9 9 8 11 10 9 13 19 21 19 19 19 23 27 26 25 28 33 37 38 36 35 32 32 32 30 28 27 29 28 27 28 27 26
6 5 4 4 3 4 6 5 4 5 8 6 7 10 11 8 2 8 21 22 20 22 26 26 25 28 30 34 37 36 34 33 32 32 31 30 29 29 29 29 28 28 28
4 3 4 3 1 3 4 7 7 5 5 4 5 9 10 10 10 17 13 23 20 23 27 30 26 27 30 32 34 35 34 34 33 32 32 31 30 30 30 29 29 29 28
2 1 1 1 1 3 6 6 11 14 4 4 6 9 3 9 25 25 13 11 20 24 24 28 29 32 31 31 32 34 33 33 33 33 32 31 30 30 30 30 30 29 28
3 3 1 5 3 3 2 7 11 12 14 14 7 4 4 12 28 16 22 4 15 21 22 22 26 33 33 29 30 32 32 32 32 33 32 32 31 30 31 30 30 30 30
3 5 5 3 5 4 4 5 15 22 16 14 9 9 3 3 19 27 14 3 1 7 7 22 24 22 32 32 32 32 32 32 31 31 32 31 31 31 30 31 32 31 31
6 3 5 5 5 5 9 17 3 3 9 17 34 16 3 2 13 9 13 4 17 2 15 17 23 26 24 33 32 35 32 32 31 29 30 31 31 32 32 31 31 31 29
4 6 6 6 7 7 9 7 4 16 12 20 29 6 6 16 4 25 13 10 5 6 11 24 17 25 38 36 24 23 31 30 30 29 28 28 29 30 32 32 31 30 29
6 4 8 8 8 7 5 5 3 8 8 14 12 21 10 6 13 4 16 14 13 9 20 16 20 20 25 40 39 12 12 19 27 26 27 26 26 27 29 31 30 30 30
6 7 5 6 8 8 8 6 5 3 12 19 21 24 13 20 22 9 9 19 15 14 20 21 27 25 31 41 20 10 11 14 13 22 22 24 25 23 25 28 29 28 26
9 9 8 8 8 10 11 9 7 8 12 16 26 26 26 23 31 10 7 17 16 14 12 13 28 29 13 26 32 17 13 11 13 25 26 25 26 25 24 25 25 24 23
10 10 9 9 9 11 11 11 11 11 7 7 25 26 28 24 21 8 6 17 10 7 9 10 34 30 27 9 28 31 15 15 14 10 22 27 28 29 29 30 32 30 29
11 11 11 10 12 12 12 11 10 9 8 11 18 24 27 19 13 7 1 4 7 8 4 5 9 27 20 29 23 25 26 21 14 16 16 17 26 26 25 27 29 30 28
14 14 13 13 12 12 12 11 10 8 7 11 16 21 20 16 8 3 1 2 5 8 8 7 14 20 19 14 11 26 38 25 27 22 25 25 23 16 15 26 34 35 33
12 12 11 10 12 11 10 11 8 7 8 11 15 17 18 14 10 6 6 6 8 9 9 13 22 20 16 17 22 31 22 9 18 24 20 27 21 23 26 26 25 33 30
10 9 10 10 9 7 5 3 7 4 6 9 12 15 16 16 13 8 5 5 7 10 9 11 11 10 17 13 16 21 18 13 18 23 18 23 16 19 25 29 27 17 17
5 6 9 8 7 6 6 2 6 3 3 6 8 10 12 12 12 12 9 5 5 13 14 11 15 14 18 13 10 8 3 11 18 22 20 21 19 19 17 23 19 11 7
1 2 5 3 1 3 3 2 4 2 3 3 4 6 7 9 9 10 10 9 8 5 8 13 15 19 18 18 19 11 10 10 14 16 15 19 19 18 18 21 19 14 9
10 11 14 13 10 7 4 3 2 3 4 5 4 3 1 3 5 5 7 8 8 7 6 5 12 24 26 24 26 23 17 11 15 15 12 17 23 21 22 20 13 13 15
Wind_Direction
99 108 102 105 126 128 123 109 109 106 87 107 53 76 108 134 136 142 120 135 135 133 131 127 111 113 105 100 228 240 277 46 67 73 85 88 85 72 53 46 40 33 38
101 99 89 115 118 108 123 115 122 111 119 113 127 83 70 128 138 139 135 136 145 139 135 137 132 113 105 107 109 241 240 316 289 110 89 63 84 64 52 52 48 41 354
97 64 53 7 344 360 48 86 68 71 70 75 35 113 17 118 132 135 142 151 146 147 147 149 143 132 119 118 129 165 227 238 220 234 69 97 122 97 86 91 16 219 235
57 43 8 342 324 343 12 42 356 359 47 83 146 165 173 149 151 156 145 145 150 148 155 154 143 137 136 137 150 243 232 210 201 201 184 136 154 144 123 146 243 227 199
59 18 1 341 331 323 326 343 315 327 352 345 352 202 166 161 156 150 159 164 156 155 157 164 156 148 148 149 180 230 209 198 195 191 180 152 152 163 173 176 147 253 254
71 9 355 345 344 343 341 347 349 313 332 30 59 159 186 179 177 161 160 162 160 165 168 163 168 167 174 179 185 192 197 193 190 187 178 175 179 169 175 175 181 188 215
73 42 25 7 355 347 325 355 26 38 20 66 53 168 201 200 173 183 156 161 166 179 180 167 173 175 181 185 187 191 191 188 188 186 179 174 181 177 183 186 189 190 208
123 55 16 4 24 25 357 12 12 20 31 80 46 31 14 179 181 183 170 163 165 175 185 180 172 175 177 185 191 186 186 185 188 188 186 180 178 187 184 186 193 200 208
135 127 109 28 69 8 343 3 12 24 10 106 100 48 355 61 331 144 176 174 171 176 181 179 172 174 172 179 187 188 184 185 187 187 189 186 185 190 190 194 196 197 204
121 113 119 99 64 358 337 329 332 348 1 56 79 149 338 9 98 205 208 181 173 179 185 188 175 173 176 179 183 188 188 188 188 189 189 189 188 189 193 195 198 202 205
168 302 111 130 147 332 331 335 317 307 317 353 356 358 42 322 216 217 214 142 176 183 182 183 181 185 182 182 182 185 186 186 189 190 190 190 190 191 194 197 198 199 201
176 189 228 183 198 194 194 336 315 312 302 303 330 359 15 323 241 186 197 352 168 180 177 175 179 189 189 178 180 185 187 188 188 191 190 192 192 193 196 197 198 201 203
255 191 181 224 204 227 213 324 315 294 298 295 306 314 165 179 194 224 174 299 50 299 255 177 177 176 186 187 187 186 187 188 188 187 189 190 193 194 194 198 201 203 206
208 265 200 200 221 213 200 301 261 265 307 290 250 298 302 255 194 191 182 178 295 264 277 272 178 182 180 189 187 193 189 187 187 184 186 190 192 195 197 198 199 199 200
213 198 188 183 193 203 201 203 209 197 193 196 213 207 205 307 224 219 291 288 271 281 179 260 267 184 202 196 183 182 188 187 187 185 185 186 189 191 195 199 199 199 201
182 168 161 165 158 159 166 167 173 163 165 183 199 214 293 283 196 246 287 281 270 273 194 261 263 262 185 220 217 209 215 187 187 189 189 188 188 190 193 197 198 200 204
155 151 134 140 149 153 153 147 142 140 315 300 296 287 307 301 295 294 277 277 270 270 276 268 260 260 245 230 254 234 209 191 198 189 190 191 192 192 193 196 198 200 203
145 146 139 139 146 153 156 151 145 162 328 316 291 295 300 303 287 287 270 268 265 271 277 277 256 256 258 252 247 246 239 233 199 191 193 196 197 198 199 199 201 203 205
139 139 138 140 139 150 149 147 148 156 132 13 301 301 297 303 304 299 281 267 261 262 281 297 240 254 265 245 248 245 248 254 254 231 193 196 198 200 202 204 207 209 210
138 139 142 140 144 144 146 151 143 131 110 36 346 318 306 311 309 310 51 261 256 266 274 261 299 272 281 242 261 252 250 256 257 263 265 196 197 199 199 202 205 207 207
148 150 147 147 144 146 144 138 131 109 67 27 14 353 350 334 345 350 15 252 277 277 279 306 297 275 276 270 180 247 229 258 259 264 266 269 268 266 265 198 209 210 210
150 146 142 145 151 146 145 146 123 92 41 23 13 17 23 24 7 18 320 309 283 272 284 283 272 283 278 271 261 245 258 261 270 266 269 267 270 266 263 264 197 207 204
141 145 150 150 152 148 132 112 149 95 37 30 23 15 18 36 40 32 25 347 308 296 293 282 284 286 272 282 268 261 269 279 274 271 272 274 277 274 266 259 263 271 274
146 154 160 156 156 159 156 116 139 102 49 31 30 30 23 34 40 46 37 28 326 291 282 292 281 279 272 288 281 276 251 290 282 274 274 278 278 276 277 267 271 272 273
292 247 305 299 240 310 174 142 133 41 8 7 23 31 41 39 41 40 39 35 41 47 304 285 279 273 281 282 287 294 284 282 282 279 282 278 280 281 284 275 275 278 282
305 305 300 295 294 292 266 244 272 317 320 327 341 356 77 41 54 55 25 18 24 19 1 338 295 268 267 279 279 285 283 270 280 282 280 287 276 273 279 277 277 278 284